Temp
-4 -5 -5 -5 -6 -5 -5 -6 -5 -6 -5 -5 -5 -5 -5 -5 -5 -5 -5 -5 -5 -6 -5 -5 -5 -4 -4 -5 -5 -5 -5 -5 -5 -5 -5 -5 -6 -6 -6 -6 -6 -6 -6 -6
-4 -4 -6 -6 -6 -6 -6 -6 -5 -5 -5 -5 -5 -5 -5 -5 -5 -5 -5 -5 -5 -5 -5 -5 -5 -4 -4 -4 -5 -5 -5 -5 -5 -5 -5 -5 -5 -5 -6 -6 -6 -6 -6 -6
-4 -5 -6 -5 -5 -5 -5 -5 -5 -5 -5 -4 -5 -5 -5 -5 -5 -4 -4 -4 -4 -4 -4 -5 -5 -5 -4 -4 -4 -5 -5 -5 -5 -5 -5 -5 -6 -6 -6 -6 -7 -8 -7 -7
-5 -4 -5 -5 -4 -5 -5 -5 -6 -5 -5 -4 -4 -4 -5 -5 -5 -4 -4 -4 -4 -4 -4 -4 -4 -4 -4 -4 -4 -4 -4 -4 -5 -5 -5 -5 -6 -7 -7 -6 -7 -8 -8 -7
-6 -5 -5 -6 -5 -5 -5 -5 -6 -5 -5 -5 -4 -4 -4 -5 -5 -4 -4 -4 -4 -4 -4 -4 -4 -4 -4 -4 -4 -4 -4 -4 -4 -3 -4 -6 -6 -6 -6 -7 -7 -7 -7 -8
-6 -5 -6 -7 -6 -6 -6 -6 -6 -6 -5 -5 -5 -5 -4 -5 -4 -4 -4 -5 -5 -5 -4 -4 -4 -4 -4 -4 -4 -4 -4 -5 -5 -5 -5 -5 -5 -6 -6 -7 -8 -8 -7 -7
-6 -7 -7 -7 -7 -6 -6 -6 -6 -6 -6 -6 -6 -5 -4 -4 -4 -3 -3 -4 -5 -6 -6 -5 -4 -4 -4 -3 -4 -4 -4 -5 -5 -5 -6 -5 -5 -6 -6 -6 -7 -7 -8 -8
-6 -6 -6 -6 -6 -6 -6 -6 -6 -6 -6 -6 -6 -6 -5 -4 -4 -3 -3 -4 -4 -4 -4 -5 -5 -4 -3 -4 -4 -4 -5 -5 -5 -4 -5 -6 -6 -7 -7 -7 -8 -8 -8 -8
-6 -6 -6 -6 -6 -6 -6 -6 -6 -7 -7 -6 -6 -6 -5 -5 -4 -4 -3 -3 -4 -4 -4 -4 -4 -3 -4 -4 -4 -4 -4 -5 -4 -4 -5 -6 -6 -7 -7 -7 -8 -8 -8 -8
-6 -6 -6 -6 -6 -6 -6 -6 -7 -7 -6 -7 -6 -6 -5 -4 -4 -4 -4 -3 -3 -4 -4 -4 -4 -4 -5 -5 -4 -4 -4 -4 -4 -4 -5 -6 -6 -7 -7 -7 -9 -9 -7 -7
-6 -6 -7 -6 -6 -6 -7 -7 -7 -6 -6 -6 -6 -5 -5 -5 -4 -4 -4 -3 -4 -5 -4 -4 -5 -4 -5 -5 -4 -4 -4 -4 -4 -4 -6 -6 -6 -7 -8 -9 -9 -10 -9 -8
-5 -5 -6 -6 -6 -6 -7 -7 -7 -6 -6 -6 -5 -4 -5 -5 -5 -5 -4 -4 -4 -5 -6 -6 -5 -5 -5 -5 -4 -4 -4 -5 -4 -5 -5 -6 -6 -7 -8 -9 -10 -9 -8 -8
-6 -5 -5 -6 -6 -7 -7 -6 -7 -7 -6 -6 -6 -5 -5 -5 -5 -5 -5 -5 -5 -6 -7 -6 -5 -5 -5 -5 -5 -5 -5 -5 -5 -5 -6 -6 -7 -8 -9 -10 -10 -9 -8 -8
-5 -5 -6 -5 -6 -6 -6 -6 -6 -6 -7 -6 -5 -5 -5 -5 -5 -6 -5 -6 -6 -7 -7 -7 -6 -6 -6 -6 -5 -5 -5 -5 -5 -5 -6 -7 -7 -7 -9 -10 -10 -11 -10 -9
-5 -6 -5 -6 -6 -5 -6 -6 -6 -7 -7 -5 -5 -4 -4 -4 -5 -5 -6 -7 -8 -8 -8 -8 -7 -7 -6 -6 -6 -5 -5 -5 -5 -5 -6 -7 -7 -7 -8 -9 -10 -10 -10 -10
-6 -6 -5 -5 -6 -5 -5 -6 -6 -6 -5 -5 -5 -5 -5 -5 -6 -6 -6 -7 -8 -8 -8 -8 -7 -7 -7 -6 -6 -5 -6 -5 -5 -5 -7 -7 -7 -7 -8 -9 -9 -10 -11 -10
-6 -6 -5 -4 -5 -5 -5 -5 -5 -5 -5 -5 -5 -5 -5 -5 -6 -6 -6 -7 -7 -8 -8 -8 -8 -7 -7 -7 -6 -6 -6 -5 -5 -6 -7 -7 -8 -7 -8 -8 -9 -9 -10 -10
-5 -5 -5 -5 -5 -5 -6 -6 -6 -5 -5 -5 -5 -6 -6 -7 -7 -7 -8 -8 -8 -9 -9 -9 -8 -7 -7 -7 -6 -6 -6 -6 -6 -6 -7 -8 -8 -8 -8 -8 -9 -9 -9 -10
-5 -6 -5 -5 -6 -5 -6 -6 -5 -5 -5 -5 -6 -6 -6 -6 -7 -8 -8 -8 -9 -9 -9 -9 -8 -8 -8 -7 -7 -7 -6 -6 -6 -7 -8 -8 -8 -8 -8 -8 -9 -9 -10 -10
-6 -6 -6 -6 -6 -5 -6 -6 -6 -5 -5 -6 -6 -6 -6 -7 -7 -8 -8 -8 -9 -9 -10 -9 -8 -9 -8 -8 -8 -7 -7 -7 -7 -7 -7 -8 -8 -9 -9 -9 -9 -9 -9 -10
-6 -6 -6 -6 -6 -6 -6 -6 -6 -6 -6 -6 -6 -6 -6 -7 -8 -8 -9 -10 -10 -11 -10 -10 -9 -9 -9 -8 -8 -8 -8 -7 -8 -6 -8 -8 -9 -9 -9 -9 -9 -9 -9 -9
-6 -6 -6 -6 -6 -6 -6 -6 -6 -6 -6 -6 -7 -7 -7 -7 -8 -9 -10 -10 -10 -9 -9 -9 -10 -9 -9 -9 -9 -9 -9 -9 -8 -7 -8 -8 -9 -10 -10 -9 -9 -10 -10 -10
-6 -6 -6 -6 -6 -6 -6 -6 -6 -6 -6 -7 -7 -7 -8 -9 -9 -10 -10 -11 -10 -10 -10 -10 -10 -10 -10 -11 -10 -10 -10 -9 -9 -9 -9 -9 -9 -10 -10 -10 -10 -10 -10 -10
-6 -6 -6 -6 -6 -6 -6 -6 -7 -7 -7 -7 -8 -9 -9 -10 -10 -11 -11 -12 -11 -11 -11 -10 -10 -11 -11 -11 -11 -11 -11 -10 -9 -9 -9 -10 -10 -10 -10 -10 -11 -11 -11 -10
-6 -6 -6 -6 -7 -7 -7 -7 -7 -7 -7 -8 -9 -10 -10 -10 -10 -11 -12 -12 -11 -11 -11 -11 -11 -11 -11 -11 -11 -11 -11 -10 -10 -10 -10 -10 -10 -10 -10 -11 -10 -11 -11 -11
-7 -7 -7 -7 -7 -7 -8 -8 -8 -9 -9 -9 -10 -10 -10 -11 -11 -12 -11 -12 -11 -11 -11 -11 -11 -12 -12 -12 -12 -11 -11 -11 -11 -10 -11 -11 -11 -11 -11 -11 -11 -11 -11 -11
Height
5932 5932 5931 5930 5931 5931 5931 5931 5929 5928 5927 5928 5926 5926 5926 5926 5925 5925 5924 5922 5920 5920 5920 5920 5919 5920 5918 5917 5916 5914 5912 5912 5913 5912 5912 5911 5910 5906 5904 5905 5906 5905 5905 5904
5932 5932 5930 5931 5932 5932 5932 5931 5931 5931 5930 5929 5929 5931 5930 5930 5929 5927 5926 5925 5924 5920 5920 5920 5919 5917 5915 5914 5912 5911 5909 5909 5909 5909 5909 5909 5908 5907 5904 5901 5899 5899 5899 5898
5932 5932 5933 5933 5932 5932 5932 5931 5933 5934 5932 5932 5931 5931 5931 5931 5931 5929 5928 5925 5924 5921 5921 5921 5919 5917 5916 5912 5909 5907 5907 5908 5907 5905 5905 5904 5902 5899 5898 5897 5894 5893 5892 5891
5934 5935 5934 5933 5931 5931 5930 5932 5932 5933 5932 5933 5933 5932 5930 5931 5931 5930 5929 5926 5924 5923 5923 5922 5921 5918 5916 5913 5911 5908 5907 5904 5902 5900 5898 5896 5895 5894 5892 5890 5889 5887 5885 5883
5932 5930 5931 5932 5931 5931 5932 5931 5931 5931 5930 5934 5933 5933 5931 5929 5929 5929 5928 5925 5923 5923 5922 5923 5921 5919 5918 5915 5912 5909 5906 5903 5900 5897 5894 5893 5891 5888 5886 5884 5881 5879 5877 5876
5931 5931 5931 5933 5931 5932 5932 5933 5933 5931 5932 5932 5931 5931 5930 5928 5928 5928 5927 5924 5923 5924 5922 5920 5919 5917 5915 5912 5909 5907 5904 5901 5897 5895 5892 5888 5885 5882 5879 5875 5872 5870 5870 5869
5930 5932 5933 5934 5933 5933 5935 5935 5935 5934 5931 5931 5929 5927 5926 5926 5924 5925 5925 5922 5922 5920 5918 5916 5915 5913 5910 5907 5904 5901 5898 5896 5892 5889 5886 5881 5878 5874 5872 5867 5864 5861 5863 5860
5933 5934 5934 5933 5933 5933 5933 5934 5934 5932 5931 5929 5927 5925 5924 5921 5921 5921 5921 5920 5919 5917 5913 5912 5910 5909 5906 5902 5898 5894 5891 5888 5884 5880 5875 5871 5866 5863 5861 5858 5854 5851 5854 5848
5933 5935 5934 5933 5932 5932 5931 5932 5933 5931 5928 5926 5924 5922 5921 5919 5918 5916 5915 5914 5912 5910 5909 5907 5903 5899 5897 5895 5891 5889 5884 5882 5878 5872 5866 5860 5856 5851 5848 5845 5839 5838 5836 5836
5931 5933 5933 5932 5931 5930 5929 5930 5930 5928 5926 5924 5921 5919 5918 5917 5915 5914 5912 5911 5909 5907 5904 5901 5897 5894 5891 5888 5885 5883 5879 5873 5868 5861 5855 5849 5844 5837 5833 5828 5826 5827 5821 5817
5929 5931 5931 5929 5928 5928 5928 5927 5924 5923 5923 5920 5918 5917 5915 5914 5913 5911 5910 5909 5906 5903 5900 5896 5893 5890 5886 5882 5877 5872 5867 5861 5856 5849 5842 5835 5828 5823 5818 5814 5811 5810 5812 5803
5927 5928 5928 5927 5925 5924 5924 5923 5921 5920 5921 5918 5916 5915 5911 5911 5909 5907 5904 5902 5901 5898 5894 5890 5886 5882 5879 5874 5869 5864 5859 5851 5845 5839 5832 5824 5816 5811 5806 5801 5799 5799 5799 5799
5925 5924 5925 5926 5924 5922 5920 5917 5917 5915 5914 5913 5911 5911 5908 5905 5903 5901 5899 5897 5895 5892 5888 5883 5878 5874 5870 5865 5861 5856 5852 5846 5838 5830 5824 5816 5809 5802 5799 5797 5794 5787 5772 5771
5922 5921 5921 5923 5922 5919 5917 5915 5914 5912 5909 5906 5905 5903 5902 5901 5899 5897 5895 5892 5889 5886 5881 5876 5871 5867 5862 5857 5853 5848 5842 5837 5831 5823 5816 5808 5802 5796 5795 5792 5788 5780 5776 5765
5920 5918 5917 5917 5916 5915 5913 5913 5910 5907 5904 5900 5899 5896 5896 5894 5892 5891 5888 5885 5882 5879 5874 5869 5863 5859 5856 5851 5847 5841 5836 5830 5824 5817 5811 5805 5799 5793 5791 5788 5783 5777 5770 5770
5915 5914 5912 5912 5911 5908 5907 5908 5903 5901 5898 5896 5893 5891 5890 5887 5886 5884 5881 5877 5874 5870 5866 5861 5855 5851 5847 5842 5838 5833 5829 5823 5817 5810 5805 5800 5794 5789 5786 5783 5781 5778 5771 5767
5910 5908 5906 5906 5905 5903 5904 5900 5898 5895 5893 5891 5889 5888 5884 5882 5879 5876 5873 5870 5866 5862 5858 5851 5846 5842 5837 5833 5828 5824 5820 5814 5809 5802 5796 5793 5790 5784 5782 5779 5777 5775 5770 5760
5904 5903 5902 5900 5900 5897 5899 5897 5893 5889 5887 5884 5883 5880 5876 5873 5870 5867 5865 5861 5857 5852 5847 5841 5835 5831 5827 5823 5818 5814 5810 5805 5800 5795 5789 5785 5783 5780 5776 5774 5772 5769 5768 5766
5899 5897 5896 5893 5891 5889 5889 5887 5884 5881 5879 5876 5873 5869 5866 5863 5860 5858 5855 5851 5847 5842 5835 5830 5825 5820 5816 5811 5806 5803 5799 5795 5791 5786 5781 5778 5775 5774 5772 5770 5768 5766 5764 5763
5893 5891 5889 5886 5882 5879 5879 5876 5873 5870 5867 5865 5861 5859 5856 5853 5851 5849 5844 5839 5834 5828 5823 5817 5813 5808 5803 5799 5795 5792 5788 5785 5782 5777 5773 5770 5767 5766 5765 5764 5763 5760 5757 5756
5886 5883 5879 5876 5873 5872 5866 5862 5860 5859 5858 5854 5850 5846 5843 5840 5837 5833 5829 5824 5820 5815 5809 5805 5801 5796 5791 5787 5783 5781 5778 5775 5773 5769 5766 5762 5759 5759 5759 5757 5757 5756 5753 5752
5878 5875 5874 5871 5867 5863 5858 5855 5851 5848 5844 5842 5838 5834 5830 5826 5822 5819 5815 5810 5805 5801 5795 5791 5787 5782 5777 5773 5771 5768 5767 5765 5762 5759 5757 5754 5752 5752 5751 5751 5752 5750 5749 5747
5867 5864 5861 5858 5853 5850 5847 5845 5842 5838 5833 5829 5825 5820 5815 5811 5807 5802 5798 5793 5788 5784 5779 5775 5772 5769 5764 5760 5759 5757 5755 5755 5751 5749 5747 5745 5744 5744 5744 5745 5747 5747 5745 5744
5855 5853 5849 5845 5845 5840 5837 5834 5831 5827 5822 5818 5813 5808 5803 5798 5793 5788 5782 5777 5773 5769 5764 5760 5758 5755 5751 5748 5748 5746 5744 5743 5742 5739 5739 5738 5737 5738 5739 5738 5740 5741 5742 5742
5845 5840 5837 5836 5835 5831 5827 5823 5819 5815 5811 5807 5802 5797 5791 5785 5781 5776 5770 5765 5761 5757 5753 5749 5745 5744 5740 5737 5736 5735 5734 5732 5731 5730 5730 5731 5731 5731 5732 5732 5734 5734 5736 5737
5833 5828 5827 5825 5822 5818 5816 5812 5807 5803 5797 5792 5787 5783 5777 5771 5767 5762 5759 5754 5749 5745 5741 5737 5733 5730 5728 5726 5725 5723 5722 5720 5720 5721 5721 5723 5724 5725 5726 5727 5726 5727 5728 5728
Wind_Speed
2 11 10 11 8 5 10 11 17 18 19 18 19 12 17 16 12 11 9 10 13 11 9 8 11 11 7 10 6 8 8 9 9 10 11 9 10 15 18 21 22 22 22 23
5 10 10 10 9 9 9 7 7 13 16 17 20 19 16 17 17 16 19 18 15 12 13 11 12 13 11 9 13 15 10 12 13 18 16 17 16 18 17 21 24 26 25 25
6 11 8 4 6 7 8 8 6 11 15 14 18 17 18 16 13 13 15 14 13 12 13 11 10 10 12 13 13 16 11 14 16 17 17 19 17 22 22 18 21 25 26 27
8 9 7 8 10 7 9 6 9 8 8 8 10 13 17 13 9 9 12 12 12 13 12 10 9 10 10 13 13 13 16 16 18 22 23 23 24 22 23 22 22 28 32 30
3 3 4 10 9 6 6 11 7 5 3 8 6 8 12 10 7 5 8 8 9 9 9 12 10 9 9 11 12 14 18 17 13 21 29 29 28 29 26 27 33 37 32 34
1 3 2 15 12 9 8 13 10 3 3 5 4 5 6 5 6 5 9 9 6 3 5 12 12 11 11 14 16 17 19 21 22 26 30 33 34 34 35 33 35 30 30 29
11 11 18 12 9 4 11 5 2 4 4 4 5 3 4 1 8 7 11 9 7 6 7 10 13 15 16 20 23 26 28 28 29 31 31 34 35 37 37 37 38 36 34 34
8 11 14 13 8 8 5 5 7 8 4 5 5 7 7 10 11 9 9 9 7 5 11 13 15 16 19 23 27 30 32 31 34 40 38 36 38 38 38 42 43 44 40 38
5 8 13 16 15 13 7 1 8 6 10 13 13 15 13 16 15 15 12 12 13 14 16 18 23 27 29 30 32 33 37 37 40 43 38 37 38 39 41 44 47 43 52 46
8 7 6 10 11 8 5 8 8 12 16 17 20 22 20 19 18 18 18 14 15 19 22 24 27 30 33 35 36 35 37 41 44 47 39 43 42 41 42 46 46 46 52 37
12 12 14 14 13 9 9 12 14 19 19 20 25 25 24 23 23 23 21 17 20 23 25 28 31 31 34 36 39 41 43 46 48 48 44 43 41 39 40 42 41 44 51 43
8 8 10 16 15 16 17 20 23 22 18 20 25 20 24 24 26 27 28 27 27 28 32 36 36 36 38 39 41 43 45 49 49 47 46 43 41 37 33 36 35 38 48 50
13 11 9 10 16 21 23 26 27 28 27 23 22 22 25 28 29 30 32 33 33 31 33 37 39 38 40 42 43 45 46 47 48 45 41 40 38 35 28 28 40 45 39 53
12 12 19 16 16 20 24 27 29 31 34 34 28 28 29 28 32 35 36 33 31 30 34 40 42 41 42 44 45 47 48 48 47 42 39 37 37 34 25 25 30 28 28 21
13 12 15 13 15 19 23 24 28 32 34 36 35 36 34 35 36 38 36 34 32 35 39 44 46 46 43 44 45 46 47 48 47 44 39 34 32 28 27 26 25 27 26 21
14 15 18 16 17 21 23 20 25 30 34 36 37 38 37 37 36 36 36 33 36 39 41 45 47 46 45 46 47 47 47 46 44 46 37 31 28 26 24 20 19 25 22 19
18 20 21 19 19 21 16 20 23 28 30 32 33 32 33 33 34 35 35 36 39 40 41 44 47 47 48 49 49 49 46 46 46 40 36 30 27 23 23 23 22 21 23 10
20 22 25 27 27 29 24 24 28 33 34 35 35 34 34 35 36 37 38 40 42 44 45 48 52 52 50 49 49 47 45 45 40 39 32 31 28 24 21 23 22 18 16 13
23 26 29 31 33 37 35 33 35 36 37 37 36 37 37 37 38 39 42 43 45 47 48 50 52 51 48 48 48 46 45 44 40 40 33 31 29 25 21 22 23 18 16 15
27 30 32 36 39 43 41 40 41 42 42 39 40 41 41 41 41 41 44 45 46 49 53 55 55 52 51 49 48 47 45 44 36 39 32 30 26 25 23 24 24 21 18 18
29 33 36 40 43 44 48 49 48 44 44 44 45 46 47 48 48 48 48 50 52 54 55 54 51 51 49 48 47 46 43 43 35 36 32 30 25 24 23 25 23 21 19 20
35 37 39 41 44 46 47 44 44 45 47 47 48 49 50 51 51 50 50 48 48 49 50 50 46 46 46 46 44 43 42 40 37 31 30 31 27 23 21 19 22 20 19 20
39 40 41 43 43 42 42 44 46 48 50 52 52 53 54 56 56 54 53 53 53 50 49 49 45 42 44 45 43 41 40 35 33 31 36 29 23 17 16 16 16 18 20 19
39 36 38 41 41 44 46 47 48 50 52 53 55 55 55 55 54 54 56 58 56 53 50 47 44 39 41 42 40 37 35 32 30 29 30 25 22 21 22 17 17 18 19 20
37 39 42 42 43 46 47 50 51 52 53 53 51 49 49 51 52 54 55 55 53 51 50 50 47 40 38 40 36 36 32 30 27 29 27 25 22 23 24 21 19 17 18 18
41 46 46 45 44 46 46 45 46 47 47 47 46 45 46 49 49 48 47 46 46 47 48 47 44 42 37 36 35 34 31 26 26 28 25 24 22 22 23 23 20 19 19 18
Wind_Direction
0 131 109 112 120 128 105 95 97 93 92 91 77 94 67 93 60 65 67 67 74 46 23 11 6 1 27 8 352 311 292 297 297 303 283 279 287 303 299 295 290 284 277 277
136 131 122 120 140 148 144 145 148 106 99 111 98 101 89 86 91 91 92 86 85 79 61 44 40 35 29 18 5 350 330 313 312 325 315 285 282 291 292 296 294 289 279 275
155 128 147 164 167 170 169 179 109 100 96 121 113 107 96 94 91 92 86 90 86 78 72 61 55 30 13 3 5 3 350 331 330 339 334 322 321 327 308 294 290 284 279 276
168 181 166 193 197 188 190 163 101 155 98 108 128 114 114 105 79 92 88 83 74 69 80 70 61 31 17 10 10 354 342 325 312 312 328 324 312 322 315 305 298 291 283 282
231 295 344 190 186 160 95 113 77 38 0 179 114 108 126 122 50 64 73 80 65 36 43 76 50 32 9 351 352 338 341 331 315 310 309 311 310 306 303 298 297 300 277 282
207 316 89 158 143 131 101 107 131 120 135 169 128 110 121 107 16 57 104 105 86 71 12 29 24 14 3 352 347 345 341 331 319 305 302 303 301 297 296 296 295 294 281 285
114 122 142 157 149 153 140 118 205 227 232 251 343 329 17 263 352 41 103 95 65 36 44 6 351 347 349 345 341 341 341 338 327 316 301 295 292 289 286 284 284 284 276 277
129 156 174 185 202 234 222 254 233 246 230 253 288 297 320 315 332 10 54 57 54 17 0 340 332 331 338 339 337 338 335 331 324 322 314 300 296 292 290 285 279 274 262 264
171 181 192 190 187 193 209 253 218 254 272 271 284 292 297 305 318 336 7 7 4 356 341 334 335 334 337 335 333 331 329 330 328 325 317 307 301 296 288 279 276 274 270 260
203 218 224 228 218 226 230 246 235 246 259 261 279 291 293 303 314 319 327 346 350 340 333 333 331 331 332 326 323 322 326 327 329 327 315 312 306 296 283 275 268 268 267 243
212 227 239 246 242 256 239 254 263 259 260 264 269 277 285 295 298 303 310 329 334 330 326 325 323 325 322 321 322 324 329 327 330 329 324 317 311 303 284 272 269 267 268 251
292 244 240 257 269 269 261 257 275 285 286 299 274 276 280 289 289 301 309 316 320 323 322 319 317 320 321 321 322 324 326 327 330 329 326 321 317 310 296 275 263 265 268 265
290 298 302 277 275 275 278 281 282 289 299 296 287 286 297 297 298 301 307 309 313 316 311 307 310 315 317 319 320 322 323 326 327 326 324 323 322 319 312 290 279 283 266 243
314 309 297 279 267 272 274 276 283 286 287 291 292 287 283 284 292 301 304 304 307 305 304 305 305 311 315 314 317 319 321 322 326 324 320 319 321 328 320 301 303 324 300 316
304 301 284 284 276 271 267 269 275 277 282 288 295 295 300 302 303 301 299 301 304 304 302 303 306 307 309 310 313 314 317 319 324 320 313 315 316 318 316 313 308 312 315 300
290 289 288 287 284 279 284 287 271 268 275 282 286 294 297 296 296 296 296 302 301 300 301 302 300 302 306 308 308 311 313 316 321 317 309 311 309 310 313 315 311 298 298 297
287 293 291 295 297 294 314 290 289 284 282 284 289 295 297 298 297 297 300 300 300 301 302 300 297 301 306 306 306 305 309 316 319 315 307 307 306 301 303 303 303 307 302 281
283 288 294 299 300 292 300 299 293 289 290 289 292 296 297 298 298 297 297 297 300 301 297 296 297 300 299 299 299 302 306 311 313 313 305 304 303 290 292 298 300 295 295 278
287 291 293 294 294 294 299 298 291 289 288 294 296 293 294 295 294 294 294 293 295 295 296 295 293 297 298 298 298 300 302 307 313 308 295 299 297 291 283 287 290 285 282 276
279 283 286 289 290 293 297 295 292 294 295 298 297 298 296 294 293 294 292 294 299 301 300 296 296 297 296 295 295 296 299 300 309 301 287 292 289 285 281 283 282 282 290 282
278 283 286 288 291 292 292 293 295 293 295 299 300 301 302 303 302 302 302 300 297 293 291 291 293 291 291 291 290 291 296 299 302 292 292 300 287 279 274 278 272 274 278 278
280 278 278 279 281 283 285 287 290 295 299 300 300 300 300 300 300 300 297 293 292 291 291 291 292 290 289 288 288 291 296 298 297 287 282 298 291 276 270 258 268 272 274 268
282 283 286 285 284 284 286 290 293 297 298 301 303 302 300 299 299 300 300 298 297 296 294 295 296 294 292 290 290 290 292 294 288 277 280 287 281 275 263 255 248 257 268 271
285 286 283 282 286 287 290 292 294 297 299 300 299 299 299 297 296 295 296 297 297 297 299 295 294 293 290 287 288 287 287 284 281 274 277 272 272 276 273 261 259 246 243 246
288 286 284 284 286 288 291 293 295 297 297 296 294 292 289 289 290 291 292 294 297 300 298 299 299 299 293 288 290 285 283 280 270 267 268 262 270 277 273 265 269 256 248 247
287 286 289 293 292 291 291 291 290 291 291 292 291 288 285 285 286 287 291 293 295 293 292 294 294 292 290 289 287 283 281 271 264 263 254 257 266 271 268 271 274 270 261 259